Location: BGSU Observatory
(41.3799°N, 83.6397°W)
Time: 01:51:26
(UTC-05:00)

Amateur Radio Satellites - All Passes

Search period start: 17 January 2017 01:21
Search period end: 18 January 2017 01:21
Location: BGSU Observatory, 41.3799°N, 83.6397°W

Satellite Date Start Highest point End Downlink Frequencies (MHz)
Time Altitude Azimuth
JAS-2 17 Jan 01:21:42 01:27:02 25° 298° (WNW) 01:32:46 435.910
AIST 1 17 Jan 01:23:09 01:27:00 32° 76° (ENE) 01:30:49
DX 1 17 Jan 01:25:08 01:28:20 20° 266° (W) 01:31:34 434.975-435.025
DUCHIFAT 1 17 Jan 01:25:22 01:28:42 23° 292° (WNW) 01:32:02 145.980
ITUPSAT 1 17 Jan 01:27:25 01:30:59 21° 65° (ENE) 01:34:34 437.325
NANOSAT C BR1 17 Jan 01:28:56 01:32:00 20° 294° (WNW) 01:35:05 145.865
Cosmos 2491 17 Jan 01:32:00 01:38:12 22° 79° (E) 01:44:23 435.465 / 435.565
UKube-1 17 Jan 01:32:15 01:35:37 22° 265° (W) 01:39:00 .
BEESAT 2 17 Jan 01:41:52 01:43:55 13° 41° (NE) 01:45:58 435.950
TISAT 1 17 Jan 01:44:28 01:48:32 50° 260° (W) 01:52:37 437.305
BEESAT 17 Jan 02:03:38 02:08:11 48° 71° (ENE) 02:12:46 436.000
SWISSCUBE 17 Jan 02:04:44 02:09:23 56° 72° (ENE) 02:14:02 437.505
PCSat 17 Jan 02:09:11 02:14:36 88° 119° (ESE) 02:20:04 145.827
BUGSAT 1 17 Jan 02:17:12 02:19:48 17° 294° (WNW) 02:22:25 437.445
Cosmos 2504 17 Jan 02:35:11 02:42:34 57° 77° (ENE) 02:49:36 435.465 / 435.565
MOZHAYETS 4 17 Jan 02:35:35 02:39:29 29° 68° (ENE) 02:43:26
RS-15 17 Jan 02:37:09 02:48:31 46° 319° (NW) 03:00:19 29.354- 29.394
YUBILEINY 17 Jan 02:38:42 02:47:32 77° 266° (W) 02:56:16 435.215
Gurwin Techsat 1B 17 Jan 02:40:19 02:45:40 84° 104° (ESE) 02:50:59 435.225
BEESAT 3 17 Jan 02:42:15 02:46:16 82° 241° (WSW) 02:50:15 437.485
CUSAT 1 17 Jan 02:47:15 02:49:15 12° 76° (ENE) 02:51:25 437.405
ISS 17 Jan 02:49:37 02:51:31 14° 352° (N) 02:53:25 145.825
M-CUBED/EXP-1 PRIME 17 Jan 02:51:46 02:55:51 36° 66° (ENE) 02:59:43 437.505
Oscar 19 17 Jan 02:59:01 03:03:43 35° 292° (WNW) 03:08:21 437.125/150
AIST 1 17 Jan 03:01:14 03:04:21 20° 273° (W) 03:07:26
ITUPSAT 1 17 Jan 03:04:02 03:08:31 42° 261° (W) 03:13:04 437.325
CUBESAT XI-V 17 Jan 03:13:00 03:14:43 12° 61° (ENE) 03:16:26 437.345
AO-7 17 Jan 03:13:20 03:20:21 29° 95° (E) 03:27:17 29.400- 29.500
STARS 17 Jan 03:15:05 03:16:41 12° 61° (ENE) 03:18:17 437.465
BEESAT 2 17 Jan 03:18:10 03:22:13 79° 239° (WSW) 03:26:14 435.950
Cosmos 2491 17 Jan 03:25:20 03:34:01 76° 279° (W) 03:42:47 435.465 / 435.565
AUBIESAT-1 17 Jan 03:31:36 03:35:59 78° 72° (ENE) 03:40:08 437.475
ITAMSAT 1 17 Jan 03:32:39 03:37:45 53° 100° (E) 03:42:50 435.822/435.867
BEESAT 17 Jan 03:43:03 03:46:13 18° 267° (W) 03:49:25 436.000
KKS-1 17 Jan 03:43:51 03:48:10 51° 72° (ENE) 03:52:29 437.445
SWISSCUBE 17 Jan 03:44:44 03:47:30 15° 269° (W) 03:50:17 437.505
PCSat 17 Jan 03:55:15 03:58:45 17° 318° (NW) 04:02:16 145.827
MOZHAYETS 4 17 Jan 04:12:42 04:16:35 27° 265° (W) 04:20:31
Gurwin Techsat 1B 17 Jan 04:22:19 04:24:52 14° 301° (WNW) 04:27:25 435.225
CUSAT 1 17 Jan 04:25:10 04:29:47 76° 281° (WNW) 04:35:58 437.405
ISS 17 Jan 04:26:47 04:28:58 16° 13° (NNE) 04:31:09 145.825
M-CUBED/EXP-1 PRIME 17 Jan 04:26:48 04:30:18 22° 259° (W) 04:33:42 437.505
PHONESAT 2.4 17 Jan 04:26:53 04:28:58 30° 162° (SSE) 04:31:04 2401.200-2431.200
Cosmos 2504 17 Jan 04:29:34 04:35:19 25° 278° (W) 04:40:54 435.465 / 435.565
DANDE 17 Jan 04:37:56 04:41:01 30° 88° (E) 04:44:56 436.750
YUBILEINY 17 Jan 04:38:37 04:42:43 14° 286° (WNW) 04:46:50 435.215
AIST 2 17 Jan 04:41:10 04:44:23 20° 45° (NE) 04:47:35 435.215
CUBESAT XI-V 17 Jan 04:46:43 04:51:24 80° 257° (WSW) 04:56:09 437.345
STARS 17 Jan 04:48:04 04:52:26 71° 258° (WSW) 04:56:49 437.465
RS-15 17 Jan 04:56:03 05:05:24 24° 351° (N) 05:14:50 29.354- 29.394
AO-7 17 Jan 05:05:20 05:13:35 64° 294° (WNW) 05:21:45 29.400- 29.500
ITAMSAT 1 17 Jan 05:13:04 05:16:50 21° 297° (WNW) 05:20:34 435.822/435.867
KKS-1 17 Jan 05:22:26 05:25:00 15° 268° (W) 05:27:34 437.445
Cosmos 2491 17 Jan 05:27:44 05:32:30 16° 301° (WNW) 05:37:19 435.465 / 435.565
GONETS M04 17 Jan 05:32:44 05:34:26 11° 53° (NE) 05:36:08
BRITE-PL 17 Jan 05:42:34 05:47:39 89° 103° (ESE) 05:52:17 437.365/2234.400
CUTE-I 17 Jan 05:55:01 05:58:54 20° 93° (E) 06:02:45 437.470
LilacSat-2 17 Jan 05:58:00 06:00:50 19° 94° (E) 06:03:40 437.200
PHONESAT 2.4 17 Jan 06:00:43 06:03:02 71° 176° (S) 06:05:20 2401.200-2431.200
ISS 17 Jan 06:02:48 06:06:00 55° 32° (NNE) 06:09:12 145.825
GOMX 1 17 Jan 06:06:36 06:11:07 60° 100° (E) 06:15:19 467.674
NOAA 18 17 Jan 06:10:35 06:13:34 15° 91° (E) 06:16:33 137.9125
CUSAT 1 17 Jan 06:12:08 06:13:21 11° 307° (NW) 06:14:37 437.405
AIST 2 17 Jan 06:19:00 06:23:06 47° 243° (WSW) 06:27:10 435.215
HORYU 2 17 Jan 06:21:02 06:25:29 80° 286° (WNW) 06:29:56 437.375
DANDE 17 Jan 06:21:30 06:24:01 17° 298° (WNW) 06:27:00 436.750
STRAND 1 17 Jan 06:35:53 06:40:42 45° 70° (ENE) 06:45:35 437.568
Cubesat XI-IV 17 Jan 06:36:00 06:41:09 47° 99° (E) 06:46:17 437.490
O/OREOS (USA 219) 17 Jan 06:51:36 06:55:27 29° 104° (ESE) 06:59:18 437.305
HO-68 17 Jan 06:54:38 06:58:59 17° 90° (E) 07:03:19 435.675
NOAA 15 17 Jan 06:58:47 07:04:09 81° 104° (ESE) 07:09:27 137.62
Cosmos 2499 17 Jan 06:59:11 07:05:59 42° 74° (ENE) 07:12:36 435.465 / 435.565
AO-7 17 Jan 07:00:26 07:04:44 15° 314° (NW) 07:09:02 29.400- 29.500
DOVE 4 17 Jan 07:05:16 07:09:32 81° 284° (WNW) 07:13:40 437.250
CANX-2 17 Jan 07:07:09 07:09:38 15° 91° (E) 07:12:07 2200.000
RS-15 17 Jan 07:12:51 07:23:28 31° 27° (NNE) 07:33:51 29.354- 29.394
BRITE-PL 17 Jan 07:23:39 07:25:12 11° 302° (WNW) 07:26:43 437.365/2234.400
CINEMA 3 17 Jan 07:24:35 07:28:23 34° 97° (E) 07:32:15 145.822/145.860
GONETS M04 17 Jan 07:24:54 07:33:34 56° 77° (ENE) 07:42:12
SEEDS 17 Jan 07:26:34 07:28:46 14° 91° (E) 07:30:57 437.485
LilacSat-2 17 Jan 07:31:46 07:35:08 29° 289° (WNW) 07:38:30 437.200
CUTE-I 17 Jan 07:34:03 07:39:13 52° 289° (WNW) 07:44:22 437.470
PHONESAT 2.4 17 Jan 07:34:54 07:37:07 40° 194° (SSW) 07:39:20 2401.200-2431.200
COMPASS 1 17 Jan 07:39:42 07:41:29 12° 90° (E) 07:43:14 437.405
ISS 17 Jan 07:40:01 07:42:11 17° 228° (SW) 07:44:22 145.825
GOMX 1 17 Jan 07:46:24 07:48:35 13° 299° (WNW) 07:50:43 467.674
NOAA 18 17 Jan 07:49:18 07:54:45 72° 287° (WNW) 08:00:09 137.9125
AAUSAT CUBESAT 2 17 Jan 07:54:32 07:56:45 14° 91° (E) 07:58:56 437.432
CUTE 1.7 + AOD 2 17 Jan 08:13:01 08:17:19 70° 101° (E) 08:21:35 437.475
ZACube-1 17 Jan 08:14:29 08:15:35 11° 90° (E) 08:16:42 437.345
STRAND 1 17 Jan 08:16:17 08:20:05 21° 267° (W) 08:23:56 437.568
Cubesat XI-IV 17 Jan 08:16:46 08:20:54 23° 296° (WNW) 08:25:02 437.490
PRISM 17 Jan 08:30:39 08:34:25 34° 70° (ENE) 08:38:13 437.425
O/OREOS (USA 219) 17 Jan 08:30:59 08:34:49 27° 301° (WNW) 08:38:38 437.305
HO-68 17 Jan 08:40:18 08:47:32 86° 285° (WNW) 08:54:41 435.675
NOAA 15 17 Jan 08:40:28 08:43:12 14° 301° (WNW) 08:45:57 137.62
CANX-2 17 Jan 08:41:35 08:45:44 47° 287° (WNW) 08:49:51 2200.000
CUBEBUG 2 17 Jan 08:44:21 08:48:37 64° 101° (E) 08:53:00 437.445
Cosmos 2499 17 Jan 08:52:41 08:58:52 32° 274° (W) 09:04:56 435.465 / 435.565
Oscar 11 17 Jan 08:55:48 08:59:30 26° 95° (E) 09:03:10 145.826/435.025
SEEDS 17 Jan 09:00:36 09:04:44 50° 287° (WNW) 09:08:50 437.485
CINEMA 3 17 Jan 09:02:19 09:05:19 20° 293° (WNW) 09:08:22 145.822/145.860
SO-50 17 Jan 09:10:37 09:15:20 71° 120° (ESE) 09:19:59 436.795
COMPASS 1 17 Jan 09:13:13 09:17:21 55° 286° (WNW) 09:21:26 437.405
PCSat 17 Jan 09:15:19 09:18:03 14° 38° (NE) 09:20:47 145.827
UWE-3 17 Jan 09:20:42 09:25:02 81° 283° (WNW) 09:29:27 435.000/436.395/437.385
UNISAT 6 17 Jan 09:21:53 09:25:47 36° 71° (ENE) 09:29:41 437.425
GONETS M04 17 Jan 09:22:26 09:29:53 32° 277° (W) 09:37:21
RS-15 17 Jan 09:25:57 09:38:24 78° 55° (NE) 09:50:20 29.354- 29.394
FUNcube-1 17 Jan 09:27:01 09:31:20 65° 101° (E) 09:35:45 145.935
AAUSAT CUBESAT 2 17 Jan 09:28:26 09:32:29 48° 287° (WNW) 09:36:30 437.432
NOAA 18 17 Jan 09:33:34 09:34:25 10° 305° (NW) 09:35:16 137.9125
TIGRISAT 17 Jan 09:36:11 09:40:17 48° 72° (ENE) 09:44:23 435.000
DELFI C3 17 Jan 09:43:21 09:46:50 28° 96° (E) 09:50:18 145.870
ZACube-1 17 Jan 09:47:56 09:52:16 68° 285° (WNW) 09:56:39 437.345
JAS-2 17 Jan 09:49:53 09:54:14 26° 63° (ENE) 09:58:52 435.910
ANTELSAT 17 Jan 09:50:17 09:54:32 75° 74° (ENE) 09:58:48 437.575/2403.000
CUTE 1.7 + AOD 2 17 Jan 09:51:09 09:52:34 11° 298° (WNW) 09:53:57 437.475
POLYITAN 1 17 Jan 10:05:13 10:06:07 11° 61° (ENE) 10:07:00 437.675
QB50P2 17 Jan 10:05:42 10:07:10 12° 62° (ENE) 10:08:40 145.880/145.840
PRISM 17 Jan 10:06:45 10:09:47 19° 266° (W) 10:12:50 437.425
CUBEBUG 2 17 Jan 10:22:57 10:24:45 12° 297° (WNW) 10:26:34 437.445
POPSAT HIP 1 17 Jan 10:26:38 10:29:28 18° 66° (ENE) 10:32:19 437.405
HO-68 17 Jan 10:29:47 10:34:13 18° 306° (NW) 10:38:40 435.675
HUMSAT D 17 Jan 10:31:29 10:35:42 57° 100° (E) 10:39:55 437.325/437.525
Oscar 11 17 Jan 10:31:52 10:35:33 27° 291° (WNW) 10:39:15 145.826/435.025
DUCHIFAT 1 17 Jan 10:41:38 10:44:52 22° 67° (ENE) 10:48:07 145.980
NANOSAT C BR1 17 Jan 10:44:55 10:48:25 26° 69° (ENE) 10:51:54 145.865
SO-50 17 Jan 10:53:02 10:56:16 18° 319° (NW) 10:59:29 436.795
PCSat 17 Jan 10:57:01 11:02:28 71° 59° (ENE) 11:07:52 145.827
UNISAT 6 17 Jan 10:59:33 11:02:37 19° 267° (W) 11:05:40 437.425
FUNcube-1 17 Jan 11:05:12 11:07:03 13° 297° (WNW) 11:08:55 145.935
TIGRISAT 17 Jan 11:14:57 11:17:14 14° 268° (W) 11:19:32 435.000
DELFI C3 17 Jan 11:18:23 11:21:29 22° 292° (WNW) 11:24:33 145.870
BUGSAT 1 17 Jan 11:30:47 11:34:16 27° 69° (ENE) 11:37:42 437.445
BY70-1 17 Jan 11:31:58 11:35:25 77° 102° (ESE) 11:38:40 436.1900
QB50P1 17 Jan 11:34:07 11:38:19 79° 258° (WSW) 11:42:32 145.935-145.965
JAS-2 17 Jan 11:34:13 11:39:06 39° 263° (W) 11:44:22 435.910
POLYITAN 1 17 Jan 11:37:07 11:41:18 73° 257° (WSW) 11:45:30 437.675
QB50P2 17 Jan 11:38:15 11:42:25 65° 259° (W) 11:46:36 145.880/145.840
RS-15 17 Jan 11:39:41 11:49:40 31° 257° (WSW) 11:59:23 29.354- 29.394
Cosmos 2491 17 Jan 11:44:03 11:45:01 10° 53° (NE) 11:45:59 435.465 / 435.565
CUBEBUG 1 17 Jan 11:47:43 11:51:28 28° 96° (E) 11:55:11 437.445
SPROUT 17 Jan 11:49:09 11:51:06 13° 91° (E) 11:53:02 437.525
AISAT 17 Jan 11:54:49 11:58:15 22° 94° (E) 12:01:38 437.250
ESTCUBE 1 17 Jan 12:00:51 12:05:23 69° 102° (ESE) 12:09:53 437.505/2401.250
POPSAT HIP 1 17 Jan 12:01:01 12:04:57 39° 262° (W) 12:08:54 437.405
HUMSAT D 17 Jan 12:08:42 12:10:50 14° 296° (WNW) 12:12:57 437.325/437.525
DUCHIFAT 1 17 Jan 12:16:41 12:20:22 30° 263° (W) 12:24:06 145.980
NANOSAT C BR1 17 Jan 12:20:34 12:24:04 25° 264° (W) 12:27:34 145.865
Gurwin Techsat 1B 17 Jan 12:23:51 12:27:22 18° 62° (ENE) 12:30:54 435.225
VELOX 1 17 Jan 12:27:48 12:32:04 47° 100° (E) 12:36:18 145.980
Oscar 19 17 Jan 12:36:35 12:41:26 42° 69° (ENE) 12:46:19 437.125/150
PCSat 17 Jan 12:42:02 12:45:13 16° 256° (WSW) 12:48:24 145.827
50 SAT 17 Jan 13:03:58 13:07:32 75° 284° (WNW) 13:11:03 437.505
BUGSAT 1 17 Jan 13:06:19 13:09:35 23° 265° (W) 13:12:52 437.445
DX 1 17 Jan 13:11:41 13:16:02 69° 103° (ESE) 13:20:20 434.975-435.025
ITAMSAT 1 17 Jan 13:15:51 13:17:11 11° 57° (ENE) 13:18:32 435.822/435.867
CUSAT 1 17 Jan 13:16:33 13:21:41 18° 61° (ENE) 13:26:45 437.405
UKube-1 17 Jan 13:17:56 13:22:12 58° 101° (E) 13:26:26 .
SPROUT 17 Jan 13:23:10 13:27:19 54° 287° (WNW) 13:31:28 437.525
CUBEBUG 1 17 Jan 13:24:04 13:27:39 25° 292° (WNW) 13:31:11 437.445
TISAT 1 17 Jan 13:28:31 13:31:51 23° 95° (E) 13:35:10 437.305
AISAT 17 Jan 13:30:48 13:34:45 33° 290° (WNW) 13:38:40 437.250
Cosmos 2491 17 Jan 13:35:35 13:44:12 55° 77° (ENE) 13:52:46 435.465 / 435.565
ESTCUBE 1 17 Jan 13:39:36 13:41:36 13° 298° (WNW) 13:43:35 437.505/2401.250
YUBILEINY 17 Jan 13:44:59 13:51:49 26° 81° (E) 13:58:39 435.215
AIST 1 17 Jan 13:53:04 13:56:13 20° 87° (E) 13:59:22
Gurwin Techsat 1B 17 Jan 14:01:34 14:06:48 62° 259° (WSW) 14:12:06 435.225
VELOX 1 17 Jan 14:05:20 14:08:08 17° 296° (WNW) 14:10:55 145.980
BEESAT 17 Jan 14:05:39 14:07:29 12° 90° (E) 14:09:19 436.000
SWISSCUBE 17 Jan 14:06:19 14:08:50 14° 91° (E) 14:11:21 437.505
AO-7 17 Jan 14:12:12 14:19:50 42° 61° (ENE) 14:27:30 29.400- 29.500
Oscar 19 17 Jan 14:16:43 14:20:53 24° 266° (W) 14:25:05 437.125/150
DX 1 17 Jan 14:50:01 14:51:37 12° 299° (WNW) 14:53:14 434.975-435.025
ITAMSAT 1 17 Jan 14:50:38 14:55:47 81° 74° (ENE) 15:00:59 435.822/435.867
AO-85 17 Jan 14:53:53 14:58:33 54° 119° (ESE) 15:02:53 145.980
UKube-1 17 Jan 14:55:35 14:57:44 14° 298° (WNW) 14:59:52 .
CUSAT 1 17 Jan 14:56:47 15:04:48 80° 79° (E) 15:12:27 437.405
TISAT 1 17 Jan 15:03:51 15:07:28 29° 291° (WNW) 15:11:04 437.305
ITUPSAT 1 17 Jan 15:04:02 15:08:42 48° 100° (E) 15:13:20 437.325
DANDE 17 Jan 15:11:54 15:18:59 43° 74° (ENE) 15:26:49 436.750
Cosmos 2504 17 Jan 15:12:00 15:20:21 51° 90° (E) 15:28:17 435.465 / 435.565
BRITE-PL 17 Jan 15:16:33 15:19:43 15° 61° (ENE) 15:22:52 437.365/2234.400
AIST 1 17 Jan 15:29:33 15:33:33 34° 284° (WNW) 15:37:34
Cosmos 2491 17 Jan 15:33:07 15:40:33 32° 276° (W) 15:48:01 435.465 / 435.565
YUBILEINY 17 Jan 15:39:03 15:47:47 68° 280° (W) 15:56:38 435.215
BEESAT 17 Jan 15:40:58 15:45:45 71° 286° (WNW) 15:50:31 436.000
SWISSCUBE 17 Jan 15:42:16 15:47:01 62° 287° (WNW) 15:51:44 437.505
SO-50 17 Jan 16:03:51 16:05:06 11° 34° (NE) 16:06:22 436.795
AO-7 17 Jan 16:04:31 16:12:27 47° 259° (W) 16:20:29 29.400- 29.500
M-CUBED/EXP-1 PRIME 17 Jan 16:05:40 16:08:05 18° 99° (E) 16:10:27 437.505
MOZHAYETS 4 17 Jan 16:06:35 16:11:13 68° 101° (ESE) 16:15:50
Cubesat XI-IV 17 Jan 16:22:51 16:24:09 11° 57° (ENE) 16:25:27 437.490
BEESAT 3 17 Jan 16:33:46 16:36:04 15° 110° (ESE) 16:38:22 437.485
ITAMSAT 1 17 Jan 16:34:05 16:35:51 12° 271° (W) 16:37:38 435.822/435.867
DOVE 4 17 Jan 16:35:44 16:37:39 12° 62° (ENE) 16:39:34 437.250
AO-85 17 Jan 16:35:47 16:39:13 20° 315° (NW) 16:42:28 145.980
STARS 17 Jan 16:38:02 16:41:15 20° 94° (E) 16:44:28 437.465
CUSAT 1 17 Jan 16:40:09 16:45:51 22° 278° (W) 16:51:24 437.405
NOAA 15 17 Jan 16:41:32 16:44:58 18° 61° (ENE) 16:48:25 137.62
LilacSat-2 17 Jan 16:42:24 16:42:57 10° 63° (ENE) 16:43:30 437.200
ITUPSAT 1 17 Jan 16:42:45 16:46:09 20° 296° (WNW) 16:49:34 437.325
CUBESAT XI-V 17 Jan 16:43:41 16:47:36 25° 94° (E) 16:51:27 437.345
AUBIESAT-1 17 Jan 16:44:35 16:47:54 47° 105° (ESE) 16:51:05 437.475
BRITE-PL 17 Jan 16:51:44 16:57:25 85° 257° (WSW) 17:03:08 437.365/2234.400
DANDE 17 Jan 16:54:38 17:01:41 44° 269° (W) 17:09:24 436.750
O/OREOS (USA 219) 17 Jan 17:00:45 17:05:12 58° 65° (ENE) 17:09:38 437.305
Cosmos 2504 17 Jan 17:06:06 17:13:55 36° 288° (WNW) 17:21:23 435.465 / 435.565
KKS-1 17 Jan 17:10:52 17:15:18 80° 285° (WNW) 17:19:42 437.445
BEESAT 2 17 Jan 17:10:53 17:13:26 17° 111° (ESE) 17:16:00 435.950
GOMX 1 17 Jan 17:13:16 17:18:41 68° 75° (ENE) 17:23:55 467.674
CUTE-I 17 Jan 17:16:38 17:21:21 34° 67° (ENE) 17:26:05 437.470
HORYU 2 17 Jan 17:18:44 17:23:08 86° 258° (WSW) 17:27:34 437.375
HO-68 17 Jan 17:25:19 17:28:56 15° 51° (NE) 17:32:34 435.675
NOAA 18 17 Jan 17:36:09 17:40:52 30° 65° (ENE) 17:45:36 137.9125
M-CUBED/EXP-1 PRIME 17 Jan 17:39:50 17:42:35 23° 297° (WNW) 17:45:15 437.505
SO-50 17 Jan 17:42:02 17:46:31 62° 54° (NE) 17:50:56 436.795
YUBILEINY 17 Jan 17:42:30 17:46:31 14° 303° (WNW) 17:50:34 435.215
MOZHAYETS 4 17 Jan 17:45:33 17:47:48 14° 298° (WNW) 17:50:04
Cubesat XI-IV 17 Jan 17:58:00 18:03:18 78° 75° (ENE) 18:08:39 437.490
CANX-2 17 Jan 18:01:20 18:02:44 11° 62° (ENE) 18:04:09 2200.000
BEESAT 3 17 Jan 18:09:32 18:13:17 45° 307° (NW) 18:17:06 437.485
DOVE 4 17 Jan 18:09:37 18:14:44 84° 257° (WSW) 18:19:36 437.250
LilacSat-2 17 Jan 18:13:00 18:16:43 59° 260° (W) 18:20:28 437.200
STARS 17 Jan 18:13:42 18:17:42 36° 290° (WNW) 18:21:42 437.465
NOAA 15 17 Jan 18:18:58 18:24:12 64° 258° (WSW) 18:29:30 137.62
SEEDS 17 Jan 18:20:09 18:20:50 10° 62° (ENE) 18:21:30 437.485
CUBESAT XI-V 17 Jan 18:20:47 18:24:58 33° 291° (WNW) 18:29:08 437.345
AUBIESAT-1 17 Jan 18:21:18 18:21:53 10° 302° (WNW) 18:22:28 437.475
CINEMA 3 17 Jan 18:26:09 18:30:09 33° 71° (ENE) 18:34:02 145.822/145.860
BRITE-PL 17 Jan 18:34:50 18:36:35 11° 274° (W) 18:38:20 437.365/2234.400
GONETS M04 17 Jan 18:37:47 18:39:16 10° 72° (ENE) 18:40:44
O/OREOS (USA 219) 17 Jan 18:41:54 18:44:04 13° 262° (W) 18:46:13 437.305
AAUSAT CUBESAT 2 17 Jan 18:46:54 18:47:15 10° 62° (ENE) 18:47:36 437.432
BEESAT 2 17 Jan 18:47:07 18:50:52 42° 307° (NW) 18:54:42 435.950
STRAND 1 17 Jan 18:47:32 18:50:29 15° 91° (E) 18:53:27 437.568
GOMX 1 17 Jan 18:53:56 18:57:07 16° 270° (W) 19:00:17 467.674
CUTE-I 17 Jan 18:56:42 19:01:22 31° 264° (W) 19:06:04 437.470
CUTE 1.7 + AOD 2 17 Jan 19:05:24 19:09:28 48° 73° (ENE) 19:13:35 437.475
HO-68 17 Jan 19:08:16 19:15:24 72° 71° (ENE) 19:22:36 435.675
NOAA 18 17 Jan 19:16:19 19:21:23 37° 262° (W) 19:26:29 137.9125
SO-50 17 Jan 19:24:04 19:26:25 14° 251° (WSW) 19:28:47 436.795
CANX-2 17 Jan 19:33:47 19:37:59 68° 258° (WSW) 19:42:16 2200.000
Cosmos 2499 17 Jan 19:35:03 19:42:41 38° 87° (E) 19:49:51 435.465 / 435.565
Cubesat XI-IV 17 Jan 19:41:39 19:43:58 13° 271° (W) 19:46:18 437.490
CUBEBUG 2 17 Jan 19:42:30 19:46:34 50° 73° (ENE) 19:50:36 437.445
Oscar 11 17 Jan 19:50:56 19:54:11 21° 67° (ENE) 19:57:27 145.826/435.025
SEEDS 17 Jan 19:51:41 19:55:53 76° 259° (W) 20:00:08 437.485
COMPASS 1 17 Jan 20:03:17 20:07:28 85° 254° (WSW) 20:11:42 437.405
CINEMA 3 17 Jan 20:03:49 20:07:20 22° 265° (W) 20:10:44 145.822/145.860
AIST 2 17 Jan 20:16:22 20:20:03 33° 115° (ESE) 20:23:49 435.215
UWE-3 17 Jan 20:17:35 20:21:45 80° 76° (ENE) 20:25:54 435.000/436.395/437.385
AAUSAT CUBESAT 2 17 Jan 20:17:55 20:22:05 76° 259° (WSW) 20:26:17 437.432
FUNcube-1 17 Jan 20:22:33 20:26:30 47° 73° (ENE) 20:30:30 145.935
STRAND 1 17 Jan 20:25:00 20:30:06 64° 287° (WNW) 20:35:10 437.568
GONETS M04 17 Jan 20:25:38 20:34:10 64° 92° (E) 20:42:47
DELFI C3 17 Jan 20:29:33 20:32:15 18° 66° (ENE) 20:34:58 145.870
CUTE 1.7 + AOD 2 17 Jan 20:43:14 20:45:34 14° 269° (W) 20:47:54 437.475
ZACube-1 17 Jan 20:43:34 20:47:43 88° 259° (W) 20:51:53 437.345
HO-68 17 Jan 20:58:30 21:03:43 21° 268° (W) 21:08:59 435.675
CUBEBUG 2 17 Jan 21:21:33 21:23:29 13° 269° (W) 21:25:24 437.445
HUMSAT D 17 Jan 21:22:40 21:26:26 37° 71° (ENE) 21:30:16 437.325/437.525
Oscar 11 17 Jan 21:26:09 21:30:05 34° 263° (W) 21:34:03 145.826/435.025
Cosmos 2499 17 Jan 21:27:34 21:35:38 46° 284° (WNW) 21:43:14 435.465 / 435.565
ANTELSAT 17 Jan 21:42:44 21:45:22 15° 92° (E) 21:48:03 437.575/2403.000
PRISM 17 Jan 21:46:41 21:50:45 55° 101° (E) 21:54:45 437.425
BY70-1 17 Jan 21:48:30 21:50:02 13° 65° (ENE) 21:51:38 436.1900
AIST 2 17 Jan 21:55:06 21:58:34 25° 313° (NW) 22:02:05 435.215
FUNcube-1 17 Jan 22:00:58 22:03:02 13° 269° (W) 22:05:05 145.935
DELFI C3 17 Jan 22:03:04 22:06:46 36° 262° (W) 22:10:31 145.870
GONETS M04 17 Jan 22:24:24 22:31:36 28° 293° (WNW) 22:38:54
JAS-2 17 Jan 22:41:11 22:47:21 30° 95° (E) 22:53:55 435.910
CUBEBUG 1 17 Jan 22:43:43 22:47:19 25° 68° (ENE) 22:50:55 437.445
ISS 17 Jan 22:43:53 22:45:53 15° 131° (SE) 22:47:54 145.825
SPROUT 17 Jan 22:43:57 22:45:01 11° 62° (ENE) 22:46:07 437.525
UNISAT 6 17 Jan 22:49:08 22:53:33 83° 103° (ESE) 22:58:04 437.425
AISAT 17 Jan 22:52:18 22:55:38 21° 66° (ENE) 22:58:58 437.250
HUMSAT D 17 Jan 22:59:31 23:02:12 17° 268° (W) 23:04:55 437.325/437.525
ESTCUBE 1 17 Jan 23:00:02 23:04:29 63° 74° (ENE) 23:08:59 437.505/2401.250
TIGRISAT 17 Jan 23:03:30 23:07:53 75° 285° (WNW) 23:12:22 435.000
BY70-1 17 Jan 23:17:39 23:20:08 25° 264° (W) 23:22:49 436.1900
ANTELSAT 17 Jan 23:18:05 23:22:19 49° 287° (WNW) 23:26:39 437.575/2403.000
QB50P1 17 Jan 23:19:46 23:22:25 16° 92° (E) 23:25:04 145.935-145.965
POLYITAN 1 17 Jan 23:22:44 23:25:37 18° 93° (E) 23:28:29 437.675
PRISM 17 Jan 23:23:35 23:25:33 13° 297° (WNW) 23:27:30 437.425
QB50P2 17 Jan 23:23:42 23:26:47 19° 94° (E) 23:29:52 145.880/145.840
VELOX 1 17 Jan 23:24:49 23:29:02 42° 71° (ENE) 23:33:14 145.980
AO-85 17 Jan 23:25:27 23:29:11 41° 52° (NE) 23:32:53 145.980
50 SAT 17 Jan 23:38:26 23:41:47 40° 73° (ENE) 23:45:11 437.505
POPSAT HIP 1 17 Jan 23:45:30 23:49:15 30° 97° (E) 23:52:58 437.405
RS-15 17 Jan 23:48:33 23:59:38 50° 110° (ESE) 00:11:09 29.354- 29.394
YUBILEINY 17 Jan 23:55:48 23:59:03 12° 55° (NE) 00:02:17 435.215
DUCHIFAT 1 18 Jan 00:00:02 00:03:58 38° 98° (E) 00:07:52 145.980
NANOSAT C BR1 18 Jan 00:03:52 00:07:56 46° 99° (E) 00:11:59 145.865
DX 1 18 Jan 00:06:51 00:11:09 59° 73° (ENE) 00:15:29 434.975-435.025
UKube-1 18 Jan 00:12:09 00:16:19 49° 72° (ENE) 00:20:30 .
SPROUT 18 Jan 00:16:05 00:20:21 73° 259° (W) 00:24:36 437.525
ISS 18 Jan 00:18:50 00:22:02 60° 327° (NNW) 00:25:16 145.825
CUBEBUG 1 18 Jan 00:19:33 00:23:27 30° 264° (W) 00:27:22 437.445
TISAT 1 18 Jan 00:20:36 00:23:28 18° 66° (ENE) 00:26:20 437.305
JAS-2 18 Jan 00:25:43 00:32:31 56° 290° (WNW) 00:39:57 435.910
AISAT 18 Jan 00:27:42 00:31:50 37° 262° (W) 00:35:59 437.250
UNISAT 6 18 Jan 00:29:03 00:29:38 10° 299° (WNW) 00:30:12 437.425
ESTCUBE 1 18 Jan 00:39:47 00:41:42 12° 270° (W) 00:43:38 437.505/2401.250
BUGSAT 1 18 Jan 00:46:53 00:50:46 45° 99° (E) 00:54:38 437.445
Cosmos 2491 18 Jan 00:49:07 00:50:05 10° 72° (ENE) 00:51:04 435.465 / 435.565
Oscar 19 18 Jan 00:49:34 00:52:15 14° 90° (E) 00:54:54 437.125/150
BEESAT 3 18 Jan 00:50:03 00:51:57 13° 40° (NE) 00:53:51 437.485
QB50P1 18 Jan 00:54:24 00:58:22 42° 288° (WNW) 01:02:20 145.935-145.965
POLYITAN 1 18 Jan 00:57:37 01:01:32 38° 289° (WNW) 01:05:28 437.675
QB50P2 18 Jan 00:58:49 01:02:40 35° 289° (WNW) 01:06:31 145.880/145.840
VELOX 1 18 Jan 01:02:38 01:05:40 18° 267° (W) 01:08:42 145.980
Cosmos 2504 18 Jan 01:06:45 01:10:54 15° 61° (ENE) 01:14:56 435.465 / 435.565
AO-85 18 Jan 01:06:48 01:09:13 16° 249° (WSW) 01:11:39 145.980
BEESAT 18 Jan 01:11:54 01:14:39 16° 62° (ENE) 01:17:25 436.000
SWISSCUBE 18 Jan 01:12:47 01:15:55 18° 63° (ENE) 01:19:02 437.505
50 SAT 18 Jan 01:13:47 01:15:13 12° 268° (W) 01:16:37 437.505
